User: anonymous   Login
Location: Coleman
(45.0650°N, 88.0340°W)
Time: 21:39:07
(UTC-05:00)
Language:

Iridium 97 - Orbit

View from above orbital plane
View from above orbital plane
View from above satellite
View from above satellite

Ground track
Ground track

The orbit data is extracted from the following two-line orbital elements,

1 27450U 02031A   18173.51495225  .00000031  00000-0  35697-5 0  9996
2 27450  86.4234 164.1646 0002411  84.7425 275.4049 14.38599500843351
Epoch (UTC): 22 June 2018 12:21:31
Eccentricity: 0.0002411
inclination: 86.4234°
perigee height: 761 km
apogee height: 765 km
right ascension of ascending node: 164.1646°
argument of perigee: 84.7425°
revolutions per day: 14.38599500
mean anomaly at epoch: 275.4049°
orbit number at epoch: 84335

The dashed part of the orbit path shows where the satellite is in the earth's shadow,  

DLR